Location: Hertford
(51.8000°N, 0.0667°W)
Time: 13:15:43
(UTC+00:00)

Ariane Rocket - Pass Details

Date: 18 September 2020
Orbit: 760 x 769 km, 98.7° (Epoch: 25 October)

Event Time Altitude Azimuth Distance (km) Brightness Sun altitude
Exits shadow 19:49:58 - 173° (S) 2,761 5.6 -16.2°
Reaches altitude 10° 19:51:09 10° 175° (S) 2,294 5.2 -16.4°
Maximum altitude 19:56:10 64° 257° (WSW) 848 3.4 -17.1°
Drops below altitude 10° 20:01:14 10° 339° (NNW) 2,317 6.2 -17.8°
Sets 20:03:35 0° 343° (NNW) 3,250 6.9 -18.1°
